Location: ???????
(55.4231°N, 38.5570°E)
Time: 14:56:53
(UTC+00:00)

Cosmos 1943 Rocket - Pass Details

Date: 05 August 2024
Orbit: 813 x 841 km, 71.0° (Epoch: 18 September)

Event Time Altitude Azimuth Distance (km) Brightness Sun altitude
Rises 00:23:46 0° 325° (NW) 3,366 5.5 -9.1°
Reaches altitude 10° 00:26:15 10° 329° (NNW) 2,427 4.8 -8.9°
Maximum altitude 00:31:45 61° 50° (NE) 926 2.8 -8.3°
Drops below altitude 10° 00:37:12 10° 131° (SE) 2,402 4.6 -7.8°
Sets 00:39:39 0° 135° (SE) 3,330 5.3 -7.6°
